Weather History for Calgary Springbank, AB

Change the Weather History Date:

Tuesday, December 17, 2013

  Actual Average Record
Temperature  
Mean Temperature 28 °F -  
Max Temperature 47 °F 26 °F 51 °F (1998)
Min Temperature 10 °F 7 °F -14 °F (1996)
Degree Days  
Heating Degree Days 36    
Moisture  
Dew Point 20 °F    
Average Humidity 50    
Maximum Humidity 79    
Minimum Humidity 25    
Precipitation  
Precipitation 0.00 in - - ()
Sea Level Pressure  
Sea Level Pressure 29.80 in    
Wind  
Wind Speed 12 mph ()    
Max Wind Speed 34 mph    
Max Gust Speed 43 mph    
Visibility 15.0 miles    
Events      
Averages and records for this station are not official NWS values.
T = Trace of Precipitation, MM = Missing Value Source: Averaged Metar Reports

Daily Weather History Graph

Daily Weather History Graph

Search for Another Location

Airport:

Trip Planner

Search our weather history database for the weather conditions in past years. The results will help you decide how hot, cold, wet, or windy it might be!

Date:

Astronomy

Dec. 17, 2013 Rise Set
Actual Time 8:36 AM MST 4:31 PM MST
Civil Twilight 7:56 AM MST 5:10 PM MST
Nautical Twilight 7:14 AM MST 5:53 PM MST
Astronomical Twilight 6:33 AM MST 6:34 PM MST
Moon 5:21 PM MST (12/17) 8:28 AM MST (12/17)
Length of Visible Light 9h 14m
Length of Day
7h 54m
Full, 100% of the Moon is Illuminated
Dec 17
Full
Dec 25
Last Quarter
Jan 1
New
Jan 7
First Quarter
Jan 15
Full

Hourly Weather History & Observations

Time (MST) Temp. Windchill Dew Point Humidity Pressure Visibility Wind Dir Wind Speed Gust Speed Precip Events Conditions
5:00 AM 18 °F - 13 °F 72% 30.00 in 15 mi SSE 5.8 mph - -   Overcast
5:00 AM 17.6 °F 8.2 °F 12.2 °F 79% 30.00 in 15.0 mi South 6.9 mph - N/A   Overcast
6:00 AM 17.6 °F 5.0 °F 12.2 °F 79% 29.98 in 15.0 mi South 11.5 mph - N/A   Overcast
7:00 AM 41.0 °F 32.2 °F 21.2 °F 45% 29.90 in 15.0 mi West 18.4 mph 27.6 mph N/A   Overcast
8:00 AM 37.4 °F 32.8 °F 19.4 °F 48% 29.86 in 25.0 mi WSW 5.8 mph - N/A   Overcast
9:00 AM 42.8 °F 34.5 °F 17.6 °F 36% 29.83 in 30.0 mi WSW 18.4 mph 31.1 mph N/A   Mostly Cloudy
10:00 AM 41.0 °F 33.1 °F 21.2 °F 45% 29.81 in 30.0 mi WSW 15.0 mph 23.0 mph N/A   Mostly Cloudy
11:00 AM 45 °F - 20 °F 25% 29.80 in 28 mi NNW 11.5 mph - -   Mostly Cloudy
11:00 AM 44.6 °F 38.4 °F 21.2 °F 39% 29.80 in 30.0 mi NNW 12.7 mph 20.7 mph N/A   Mostly Cloudy
12:00 PM 44.6 °F 35.7 °F 23.0 °F 43% 29.78 in 30.0 mi WNW 24.2 mph - N/A   Mostly Cloudy
1:00 PM 46.4 °F 36.9 °F 23.0 °F 40% 29.76 in 30.0 mi West 32.2 mph 38.0 mph N/A   Mostly Cloudy
2:00 PM 42.8 °F 33.1 °F 24.8 °F 49% 29.75 in 30.0 mi West 25.3 mph - N/A   Mostly Cloudy
3:00 PM 44.6 °F 34.1 °F 24.8 °F 46% 29.73 in 30.0 mi West 34.5 mph 42.6 mph N/A   Mostly Cloudy
4:00 PM 42.8 °F 32.5 °F 23.0 °F 46% 29.75 in 30.0 mi West 28.8 mph 40.3 mph N/A   Mostly Cloudy
5:00 PM 39 °F - 24 °F 41% 29.77 in 28 mi West 16.1 mph - -   Mostly Cloudy
5:00 PM 39.2 °F 30.5 °F 23.0 °F 52% 29.77 in 30.0 mi WSW 16.1 mph - N/A   Mostly Cloudy
6:00 PM 41.0 °F 31.9 °F 21.2 °F 45% 29.73 in 15.0 mi WSW 19.6 mph 27.6 mph N/A   Scattered Clouds
7:00 PM 33.8 °F 27.7 °F 19.4 °F 56% 29.69 in 15.0 mi WNW 6.9 mph - N/A   Scattered Clouds
8:00 PM 35.6 °F 31.7 °F 19.4 °F 52% 29.69 in 15.0 mi East 4.6 mph - N/A   Clear
9:00 PM 33.8 °F - 21.2 °F 60% 29.67 in 15.0 mi Variable 2.3 mph - N/A   Partly Cloudy
10:00 PM 33.8 °F 23.9 °F 21.2 °F 60% 29.65 in 15.0 mi WSW 15.0 mph - N/A   Partly Cloudy